User: anonymous   Login
Location: Unspecified
(0.0000°N, 0.0000°E)
Time: 16:42:31
(UTC+00:00)
Language:

UFO F7 - Orbit

View from above orbital plane
View from above orbital plane
View from above satellite
View from above satellite

Ground track
Ground track

The orbit data is extracted from the following two-line orbital elements,

1 23967U 96042A   17069.68484552 0.00000000  00000-0  00000-0 0    06
2 23967   8.2013  32.6158 0006301 204.8983 155.0826  1.00270000    09
Epoch (UTC): 10 March 2017 16:26:10
Eccentricity: 0.0006301
inclination: 8.2013°
perigee height: 35760 km
apogee height: 35813 km
right ascension of ascending node: 32.6158°
argument of perigee: 204.8983°
revolutions per day: 1.00270000
mean anomaly at epoch: 155.0826°
orbit number at epoch: 0

The dashed part of the orbit path shows where the satellite is in the earth's shadow,  

DLR